Date,TemperatureHighF,TemperatureAvgF,TemperatureLowF,DewpointHighF,DewpointAvgF,DewpointLowF,HumidityHigh,HumidityAvg,HumidityLow,PressureMaxIn,PressureMinIn,WindSpeedMaxMPH,WindSpeedAvgMPH,GustSpeedMaxMPH,PrecipitationSumIn
2013-4-1,69,60,54,57,52,46,93,75,54,29.88,29.76,11,2,13,0.12
2013-4-2,74,60,49,56,50,44,89,70,47,29.91,29.79,10,2,10,0.00
2013-4-3,78,62,52,56,50,46,88,68,41,29.91,29.71,10,2,10,0.00
2013-4-4,67,60,55,59,53,48,92,78,64,29.85,29.71,12,3,12,0.29
2013-4-5,69,61,54,56,51,47,89,72,53,29.91,29.82,13,2,14,0.00
2013-4-6,69,60,54,57,51,46,88,73,56,29.91,29.85,14,2,14,0.00
2013-4-7,69,59,54,56,50,44,84,71,51,29.91,29.62,13,3,13,7.46
2013-4-8,69,57,49,49,40,36,84,55,34,29.79,29.53,27,9,27,0.00
2013-4-9,76,64,53,42,38,35,60,41,27,29.82,29.74,18,6,19,0.00
2013-4-10,88,70,55,51,44,37,55,41,28,29.88,29.79,13,4,13,0.00
2013-4-11,75,63,53,49,43,37,66,49,32,29.85,29.59,17,4,20,0.00
2013-4-12,79,61,48,53,44,38,78,56,36,29.65,29.56,12,2,12,0.00
2013-4-13,74,59,49,51,42,35,77,54,35,29.65,29.56,15,3,15,0.00
2013-4-14,72,58,47,45,40,36,75,54,32,29.68,29.59,13,4,17,1.99
2013-4-15,63,54,47,47,39,32,80,59,39,29.68,29.59,30,9,30,0.00
2013-4-16,71,56,42,42,36,31,73,48,28,29.85,29.68,17,4,18,0.00
2013-4-17,72,62,53,38,33,28,45,35,24,29.97,29.85,18,6,20,0.00
2013-4-18,80,63,48,43,35,29,59,37,22,30.00,29.91,13,2,13,0.00
2013-4-19,83,66,51,54,45,37,74,49,30,29.94,29.82,115,2,115,0.00
2013-4-20,84,67,52,50,43,36,71,45,26,29.85,29.71,11,2,11,0.00
2013-4-21,88,69,51,56,44,39,76,46,20,29.76,29.68,10,2,10,0.00
2013-4-22,90,72,57,49,43,40,62,38,19,29.68,29.59,11,2,11,0.00
2013-4-23,86,68,56,46,41,36,66,41,18,29.65,29.59,12,2,12,0.00
2013-4-24,76,62,51,53,47,42,79,59,41,29.68,29.56,6,2,6,0.00
2013-4-25,73,61,52,52,48,45,81,64,45,29.85,29.68,13,3,15,0.00
2013-4-26,74,61,51,52,48,44,81,62,43,29.94,29.82,8,2,8,0.00
2013-4-27,77,62,52,54,49,43,78,63,43,29.94,29.82,7,1,7,0.00
2013-4-28,83,66,51,58,50,44,86,61,35,29.82,29.62,13,1,13,0.00
2013-4-29,92,72,58,59,50,42,73,49,26,29.62,29.53,15,2,16,0.00
2013-4-30,85,69,54,54,45,36,71,45,22,29.62,29.50,13,3,14,0.00